Theta_e
330 329 329 330 331 331 332 332 330 327 326 330 331 323 325 330 329 330 331 330 331 331 330 327 326 329 330 330 331 331 332 333 332 329 326 324 324 327 328 327 324 318 315 312 308 307 307 307 308 310 313 315 317 318 319 318 318 318 317 315 313 311 308 306 304 304 303 303 303 303 303 303 304 304 306 307 308 309 309 309 310 310 310 310 310
330 330 330 331 331 331 332 332 332 332 328 328 331 327 326 330 331 331 329 329 331 331 332 329 328 330 329 330 330 331 332 333 333 330 328 327 324 324 325 323 320 315 311 310 308 310 310 310 311 314 317 320 323 324 324 323 323 322 321 320 319 317 315 313 311 310 310 310 310 310 309 309 309 309 310 310 310 310 310 310 310 310 310 310 310
331 330 330 330 330 330 331 331 331 330 328 329 332 330 328 329 332 331 328 329 330 330 332 331 329 330 330 330 330 331 332 332 333 330 329 329 327 324 321 318 315 312 311 311 313 316 316 316 318 319 321 323 325 326 326 325 325 325 324 323 323 322 321 319 318 317 317 318 318 317 316 314 313 312 312 311 310 310 310 310 310 310 310 310 310
331 330 329 329 329 329 330 330 330 327 328 331 332 331 330 331 332 331 329 330 331 330 331 331 330 330 330 330 330 330 331 331 332 331 330 330 329 326 320 316 315 314 314 314 316 319 320 321 324 325 325 325 327 327 327 326 326 326 325 324 324 324 324 323 323 322 322 322 322 322 320 318 315 313 312 311 311 310 310 310 311 311 310 311 311
330 329 329 328 329 329 328 328 329 328 327 329 329 328 329 331 330 330 331 331 331 331 331 331 330 331 330 330 330 330 330 330 330 330 330 330 330 327 322 319 319 318 318 319 321 323 324 325 327 327 327 327 327 327 327 327 327 326 326 325 324 324 324 325 325 324 324 324 324 324 323 321 318 315 313 312 311 311 311 311 311 311 311 312 312
330 329 328 328 328 327 326 326 327 327 326 326 326 327 330 330 330 331 332 331 331 330 331 331 330 330 330 330 330 330 330 330 330 330 329 329 329 329 326 323 322 322 322 323 325 326 326 327 327 327 326 326 326 326 326 327 327 326 325 325 325 324 324 324 325 325 325 325 325 324 324 323 320 317 314 313 313 312 311 312 312 312 312 312 313
330 328 326 326 326 325 325 327 327 327 329 327 325 330 332 331 332 333 333 331 331 331 330 331 330 330 330 330 330 329 329 330 330 330 330 329 329 328 327 326 325 325 325 325 326 326 326 326 326 325 325 324 324 325 325 326 326 326 325 326 326 326 326 326 325 325 324 324 325 325 324 324 321 318 317 315 315 314 313 313 312 312 313 313 313
329 328 326 326 326 327 328 329 328 328 330 328 327 331 333 332 332 333 333 332 331 331 331 330 330 330 330 330 330 329 329 329 330 329 330 329 328 328 327 326 326 326 326 327 326 326 325 325 324 324 323 323 323 323 324 325 326 326 325 325 325 326 326 327 326 326 325 325 325 325 324 324 323 321 320 318 318 317 316 315 314 313 313 313 313
329 328 327 327 328 329 330 329 328 327 328 328 329 332 332 332 331 332 332 332 331 331 330 330 331 330 330 331 331 330 330 329 329 329 329 329 328 327 327 327 327 326 326 326 326 325 324 324 323 323 323 322 322 321 322 323 325 325 325 324 324 325 325 326 326 326 326 326 325 326 325 324 325 324 323 323 322 321 320 319 318 317 316 315 315
327 327 327 328 330 329 329 328 327 326 327 329 330 331 331 330 330 332 332 331 331 331 330 330 330 329 329 331 330 329 330 329 328 329 328 328 327 327 326 326 326 325 326 326 325 325 324 324 324 323 322 321 320 319 319 321 323 325 325 325 325 324 324 325 326 326 325 326 325 326 326 325 325 325 325 325 325 325 324 323 322 321 321 319 319
327 326 326 329 330 329 329 329 327 327 328 329 330 329 329 331 331 332 331 330 331 330 329 330 329 328 329 330 329 328 330 329 328 329 327 326 327 326 325 325 325 325 325 326 325 324 324 325 324 322 320 319 318 319 318 320 323 325 326 326 326 325 325 325 326 325 325 325 325 325 326 325 325 325 325 326 326 325 325 326 325 325 324 323 323
325 326 326 329 329 329 330 329 327 328 329 330 331 328 328 332 332 331 330 329 330 330 329 330 329 328 329 329 328 328 329 328 327 327 326 326 326 326 326 326 327 326 326 326 325 325 326 326 325 324 323 320 320 320 320 321 324 325 326 326 326 325 325 326 325 325 325 324 325 325 325 325 325 325 325 326 326 325 325 325 325 325 325 324 325
326 326 327 328 328 327 329 328 326 327 328 330 331 328 329 331 329 329 330 328 329 330 329 328 327 328 329 329 328 328 328 327 327 327 327 327 326 326 327 327 326 326 326 327 326 326 326 327 326 326 326 324 322 320 320 322 324 324 325 325 325 325 324 324 323 323 324 325 325 325 325 325 325 325 325 325 325 325 325 325 325 325 324 325 324
327 326 326 327 327 327 327 326 326 327 327 328 330 328 329 331 328 327 328 326 327 329 329 327 328 329 329 328 327 328 327 327 327 327 327 327 327 327 327 327 327 327 326 326 326 327 327 327 327 326 325 323 321 319 320 322 323 323 323 324 324 323 323 322 322 322 323 324 324 325 325 325 324 324 324 324 324 324 324 322 322 322 322 322 320
326 326 326 326 326 326 325 323 325 326 327 328 330 330 328 328 328 328 327 325 327 329 328 327 329 329 328 327 327 328 328 328 328 328 327 327 327 327 326 327 328 327 326 325 325 326 327 326 326 325 325 323 320 318 318 320 322 322 322 323 323 322 321 320 320 320 320 321 322 322 322 322 322 322 321 321 321 320 319 317 316 316 316 315 312
325 325 325 324 324 324 323 323 324 325 327 329 330 330 328 326 328 329 329 327 328 328 327 328 329 328 328 328 328 327 328 327 327 328 328 328 328 326 326 328 328 327 325 324 324 325 324 324 324 325 325 324 321 319 318 318 320 321 320 320 320 320 318 317 315 316 315 316 317 316 317 318 318 318 317 316 315 313 312 311 310 309 308 307 307
324 324 324 324 323 322 322 323 324 324 326 329 331 332 330 328 329 329 329 329 328 327 327 329 328 327 328 328 328 328 328 327 327 328 328 329 328 326 327 328 327 325 324 323 324 323 321 320 322 324 324 324 323 322 320 318 317 318 318 317 316 315 312 310 309 308 308 309 310 310 310 311 312 311 310 309 308 307 307 306 306 305 305 305 305
325 324 325 326 324 323 323 324 325 325 327 329 331 332 330 328 328 330 330 329 328 327 326 328 328 327 328 327 327 328 327 327 328 328 328 328 327 327 327 326 324 323 322 322 323 322 319 318 321 323 324 324 322 321 318 315 313 314 314 312 310 308 306 305 306 305 305 305 306 306 306 306 306 306 306 306 306 305 305 305 305 305 304 305 305
325 325 326 327 327 326 326 326 327 328 328 329 330 330 331 330 329 330 330 329 328 327 325 327 328 328 327 327 327 328 327 328 328 327 328 327 327 327 326 325 323 321 321 322 323 322 320 317 319 319 320 320 317 314 312 309 309 310 308 307 306 305 305 306 306 306 306 306 306 306 306 306 306 306 305 305 305 304 304 303 303 303 302 303 303
327 327 328 328 328 328 328 328 328 329 329 329 329 330 331 331 330 330 331 329 328 327 326 327 327 326 327 327 328 328 327 327 327 327 327 327 327 326 325 323 322 321 321 322 322 321 319 319 320 319 318 317 313 309 307 306 306 306 306 305 305 306 306 306 307 307 306 306 306 306 305 305 304 304 303 303 302 302 301 301 301 301 301 301 301
328 328 329 329 328 328 328 328 328 330 330 330 330 330 331 331 330 330 330 330 329 327 327 328 327 326 327 327 327 328 327 327 327 327 326 327 327 326 325 322 320 321 321 321 320 319 319 321 322 321 320 319 314 307 306 306 305 306 306 306 306 307 307 307 307 307 306 305 304 304 303 302 302 302 302 302 301 301 301 302 301 301 301 301 301
329 329 329 330 329 329 329 329 329 329 330 330 330 330 331 331 330 330 330 329 328 326 326 328 327 327 327 326 326 326 327 328 327 327 326 326 327 326 325 322 320 320 320 319 319 318 318 319 320 320 320 319 314 307 306 306 306 307 307 307 307 307 307 307 307 306 306 304 303 302 302 302 302 302 302 302 302 302 302 301 301 301 301 301 301
330 330 330 331 330 330 330 330 329 329 329 331 330 329 331 331 330 330 329 328 327 325 326 327 327 326 327 325 324 325 327 327 326 327 326 326 326 326 324 323 320 318 318 318 317 317 316 316 317 317 317 317 312 307 306 306 307 307 308 307 307 307 307 306 305 304 304 303 302 302 302 302 302 302 302 302 302 302 302 301 301 301 301 301 301
330 329 329 330 330 329 330 330 330 329 329 330 330 329 330 331 330 328 328 328 327 325 325 325 325 326 326 324 323 324 326 326 325 325 325 326 325 325 324 322 319 317 316 317 316 316 315 315 315 315 315 314 310 307 307 307 308 308 307 307 307 306 306 305 303 303 303 302 302 302 302 302 302 302 302 302 302 302 302 302 302 301 301 301 301
328 328 327 328 329 328 329 329 329 329 329 330 330 329 330 331 330 328 327 327 326 326 325 324 324 326 326 324 323 324 325 324 324 325 325 325 325 324 323 321 319 317 315 316 316 315 315 315 314 314 313 312 308 307 307 308 308 308 307 307 307 306 305 304 303 303 303 303 303 303 303 303 303 303 303 304 304 304 304 303 302 302 302 301 301
327 327 326 325 326 327 327 327 328 328 328 329 329 330 330 330 330 329 328 325 324 325 324 324 325 326 326 325 324 325 325 324 324 325 324 325 325 324 322 319 317 315 314 315 315 314 314 313 313 313 312 309 308 308 308 308 309 308 308 308 308 306 305 304 303 303 303 304 304 305 305 305 305 305 306 306 306 306 305 305 304 303 302 302 301
327 326 325 324 324 323 322 324 325 327 328 328 328 329 329 329 329 330 329 326 325 325 323 322 324 324 324 325 324 324 326 325 324 325 324 325 325 323 321 318 314 313 313 314 314 313 312 312 312 312 310 309 308 308 308 309 309 308 308 308 308 306 304 304 304 304 305 305 306 306 306 307 307 307 307 307 307 307 307 307 306 305 304 303 302
326 322 321 322 322 321 320 321 322 325 327 328 328 329 329 329 329 329 329 328 326 325 324 322 322 323 324 324 324 323 325 325 324 324 325 325 324 323 321 317 313 312 312 312 312 311 311 311 312 311 310 309 309 308 308 309 309 308 308 308 308 306 305 305 305 305 306 306 307 307 307 307 307 308 308 308 308 308 308 308 307 307 306 305 304
324 320 319 318 319 321 325 324 322 322 324 326 328 328 328 328 328 328 328 328 327 325 325 324 322 323 324 323 324 324 324 324 323 324 324 324 324 323 320 317 314 313 312 312 311 311 311 311 311 312 311 310 310 308 308 309 309 309 309 309 308 307 305 305 305 306 306 307 307 308 308 308 308 308 308 309 309 309 309 309 309 308 308 307 306
320 319 317 316 316 320 326 326 322 320 322 325 327 327 327 327 327 328 328 327 327 325 323 324 324 322 322 322 323 325 325 325 323 323 324 325 324 322 320 318 315 314 313 311 311 311 311 311 311 312 311 310 310 309 309 309 309 309 309 309 309 308 306 305 305 307 307 308 308 308 308 309 308 309 309 310 310 310 310 310 310 310 310 310 309
316 315 316 317 317 318 323 323 319 318 320 322 323 324 325 326 327 329 329 327 327 327 324 323 324 323 322 323 323 324 325 324 324 324 324 325 324 322 320 319 317 316 314 313 312 311 311 311 312 312 311 310 310 309 309 309 309 309 309 309 309 308 307 306 305 307 308 309 309 309 309 309 309 309 310 310 311 311 311 311 311 311 311 311 311
314 315 320 322 322 320 320 320 320 320 321 323 322 321 322 324 326 327 327 326 327 329 327 324 324 324 323 323 322 323 323 323 324 325 324 324 324 321 321 320 318 317 316 315 313 312 311 311 311 311 311 310 310 309 309 310 309 309 310 310 309 309 309 308 307 307 308 309 310 310 310 310 309 309 310 311 312 312 312 312 312 312 312 312 312
315 317 323 324 324 323 322 322 323 323 324 325 325 323 322 323 325 325 326 325 325 327 327 326 325 324 323 323 322 323 324 323 323 325 325 324 322 321 321 320 318 316 316 315 313 312 312 312 312 311 311 311 311 310 310 311 310 309 310 311 311 310 310 309 308 308 308 308 309 310 310 310 310 310 311 312 312 312 312 313 313 312 312 312 312
319 323 325 323 323 324 323 323 325 325 326 326 325 324 323 322 324 326 325 325 325 324 325 325 325 325 324 323 323 324 323 323 324 325 325 324 321 321 321 319 317 316 316 315 314 313 312 313 312 311 310 311 312 312 312 312 311 310 310 311 311 311 310 310 310 309 308 308 309 310 311 311 311 311 311 312 312 312 312 312 313 313 312 312 312
323 326 323 319 321 323 323 324 324 324 326 325 323 323 323 323 325 325 325 324 324 323 324 325 325 325 326 324 324 325 323 324 324 324 324 323 320 320 319 318 316 315 315 316 315 314 313 314 314 312 311 311 312 313 312 312 313 311 310 311 311 311 311 311 311 310 310 310 311 312 312 312 311 311 312 312 312 312 312 312 313 313 313 313 312
324 325 321 319 321 323 323 324 324 323 324 323 323 324 324 324 324 324 324 325 324 324 325 325 324 324 326 325 325 326 325 325 324 324 323 322 320 320 318 316 315 313 315 316 316 315 314 314 314 313 313 312 312 312 312 313 313 313 312 311 311 311 312 313 313 312 311 312 312 313 312 312 312 312 312 312 312 312 312 312 313 313 313 313 313
324 322 320 321 322 322 322 323 322 322 323 323 324 324 324 323 323 323 324 323 322 322 323 324 323 322 324 326 327 326 326 325 324 323 322 321 320 320 317 316 315 313 314 317 316 316 316 315 313 313 314 314 313 313 313 313 313 313 313 313 313 312 312 313 313 313 313 313 313 313 313 313 312 312 312 312 312 312 312 313 313 313 313 313 313
323 320 320 321 322 320 320 321 322 322 323 323 323 323 323 322 322 322 323 322 322 322 321 322 323 321 322 324 325 326 326 325 324 322 322 321 320 319 317 316 316 314 314 317 317 317 317 316 315 314 315 315 314 314 314 314 313 313 314 314 314 313 313 313 313 313 314 313 313 313 313 313 313 313 313 313 312 312 312 313 313 313 313 313 313
322 320 320 321 321 320 320 321 321 321 321 322 322 323 323 322 322 322 322 322 322 321 320 320 321 321 321 322 323 324 325 325 323 322 322 321 320 320 317 316 317 315 314 315 316 317 317 317 317 316 315 316 316 316 315 315 315 314 314 314 315 314 314 314 313 314 314 314 314 313 313 313 313 313 314 314 313 313 313 313 313 313 313 313 313
321 320 320 320 320 320 320 321 320 320 319 320 321 322 322 322 322 322 322 322 322 321 320 321 321 321 321 322 321 322 323 323 322 322 322 321 320 320 318 317 318 318 316 315 315 316 317 317 317 317 317 316 316 316 316 316 315 315 315 315 315 315 315 314 314 314 314 314 314 313 313 313 314 314 314 314 314 313 313 313 313 313 313 313 313
320 319 318 319 320 320 320 319 320 320 319 319 320 320 321 321 321 322 322 322 322 321 321 321 321 321 321 321 321 321 321 321 322 322 322 321 320 320 319 318 319 318 317 317 317 317 317 318 318 317 317 317 317 316 316 316 316 316 315 315 315 315 315 315 314 314 314 314 314 314 314 314 314 315 315 315 314 314 314 314 314 314 313 313 313
318 318 318 319 320 320 319 320 319 319 319 318 319 319 319 320 320 321 321 321 321 321 321 321 320 320 321 320 320 321 321 321 321 321 322 322 321 321 321 320 319 320 319 319 319 318 318 318 318 318 318 318 317 317 317 317 317 316 316 316 316 315 315 315 315 315 315 315 315 314 315 315 315 315 315 315 315 315 315 315 314 314 314 313 313
318 317 317 318 319 319 319 319 319 318 318 317 317 318 318 319 319 319 320 320 320 320 320 319 319 319 319 320 320 320 320 321 320 320 320 321 322 322 321 320 320 320 320 319 320 319 319 319 319 318 318 318 318 317 317 316 316 316 316 316 316 316 315 315 315 315 316 316 315 315 315 315 315 315 315 315 316 315 315 315 315 314 314 313 313
318 318 318 318 317 318 318 317 317 317 317 316 316 317 318 318 318 318 319 320 320 319 319 319 319 318 318 319 320 319 318 318 318 318 319 320 321 321 321 321 320 320 320 319 319 319 319 318 318 318 318 318 318 317 317 317 316 316 316 316 316 316 316 316 316 316 316 316 315 315 316 316 316 315 315 315 315 315 315 315 315 315 314 313 312
320 320 319 318 318 317 318 317 313 311 313 314 315 315 316 317 317 317 317 319 319 319 319 319 319 319 318 318 320 319 318 317 317 316 317 318 318 319 319 319 319 319 319 319 319 319 319 320 319 319 319 318 318 318 317 317 317 316 316 316 316 317 316 316 316 316 316 316 316 316 316 316 316 316 315 315 315 315 315 315 314 315 315 314 313
320 320 319 318 318 317 317 315 310 308 309 310 311 311 311 313 315 314 316 318 319 319 319 319 320 320 319 320 320 319 319 318 317 316 317 318 318 318 317 317 316 316 316 315 316 316 317 317 317 317 317 317 317 318 318 318 318 318 318 317 316 316 317 317 317 317 317 317 316 316 316 317 316 317 316 316 316 316 315 314 314 314 314 313 313
318 318 317 317 316 315 315 314 312 311 311 311 310 310 309 309 310 312 315 319 319 320 320 319 320 320 320 321 321 320 320 320 319 317 316 317 319 318 317 316 317 317 317 317 316 316 315 314 314 313 313 313 314 315 315 315 316 316 317 318 318 318 318 317 317 317 318 318 317 317 317 317 316 317 316 316 316 315 315 314 314 314 314 313 312
316 316 316 316 315 314 314 314 313 313 313 313 313 312 311 310 310 312 315 318 319 320 320 320 320 321 321 320 320 319 320 320 319 319 318 317 317 317 316 315 315 316 317 318 319 319 319 318 318 317 316 315 315 314 314 313 313 313 314 316 317 318 319 318 318 318 317 317 317 317 317 316 315 315 316 316 315 315 314 314 314 314 313 313 312
316 316 315 315 314 314 314 314 314 314 313 313 313 313 313 313 312 313 316 318 319 319 320 320 320 320 321 320 319 318 318 317 317 316 317 316 316 316 316 316 315 316 316 318 318 318 318 318 318 318 318 319 318 318 317 316 315 314 314 315 315 315 316 318 319 318 318 317 316 316 316 316 315 315 316 316 315 314 314 314 314 313 313 312 312
315 315 314 314 313 313 315 315 315 314 314 314 313 313 313 314 314 314 316 318 319 319 318 318 318 319 319 318 318 317 317 317 316 316 317 317 317 318 318 318 318 317 317 317 318 317 318 317 317 317 317 318 318 317 316 316 315 316 316 316 316 315 316 317 318 317 317 316 316 317 317 317 316 315 315 316 315 314 315 314 314 314 313 312 311
314 313 312 313 314 314 316 317 316 316 316 315 315 314 314 314 314 314 315 316 317 317 316 315 314 314 313 313 314 315 315 316 316 317 317 317 316 315 315 314 313 312 311 311 311 311 312 312 312 312 312 311 312 311 310 310 311 313 314 315 316 317 317 317 317 316 316 316 316 316 316 316 316 315 315 315 314 315 315 315 314 314 313 312 311
Wind_Speed
18 17 15 12 10 9 8 6 5 4 6 10 10 8 10 9 7 7 9 9 9 8 8 8 9 11 10 12 13 12 11 11 9 5 2 5 5 6 5 5 5 5 5 7 7 8 10 10 12 14 15 15 14 13 13 13 14 14 15 15 14 14 13 13 13 13 12 12 13 13 13 13 13 13 13 13 13 14 14 14 14 14 14 14 15
18 17 16 13 12 10 8 8 8 7 7 11 10 7 9 12 10 10 10 9 9 9 8 8 10 11 10 11 10 11 12 12 10 5 1 4 4 5 5 5 5 5 7 9 11 12 12 13 13 15 15 14 14 13 13 12 13 13 14 14 14 14 14 14 14 14 14 14 14 14 14 14 13 13 13 13 13 13 14 14 14 15 15 15 15
19 18 16 13 13 12 10 9 10 12 10 9 10 9 9 12 11 10 9 9 12 11 8 9 12 11 9 10 9 8 11 12 11 5 3 4 4 4 4 5 6 8 11 12 13 13 13 13 13 13 12 12 11 11 11 11 11 11 11 12 12 13 13 13 13 14 14 15 15 15 15 15 14 14 13 13 13 13 14 14 14 15 15 15 15
19 18 17 15 13 13 11 10 10 11 11 11 14 13 11 10 10 11 10 11 14 14 11 12 13 12 11 10 9 7 8 11 10 6 5 5 5 5 5 7 9 11 11 12 12 12 11 11 10 9 9 9 8 8 8 8 9 9 9 9 10 10 11 11 11 12 12 13 14 14 14 14 14 14 13 13 13 13 13 14 14 14 15 15 15
19 19 17 15 14 14 12 11 12 11 12 12 13 12 12 11 11 12 11 10 11 13 14 16 14 13 14 10 9 9 9 11 11 8 6 6 5 5 7 9 10 9 8 8 9 9 9 8 8 7 6 7 6 6 6 6 7 6 7 7 7 8 8 8 9 9 10 10 12 13 13 13 13 13 13 13 13 13 13 13 14 14 14 14 14
19 18 17 16 15 14 12 12 13 12 11 11 11 10 10 10 11 12 11 11 10 12 13 15 13 13 15 10 7 9 9 10 10 8 8 7 6 5 6 7 7 7 6 6 7 7 8 7 6 6 6 6 6 6 5 5 5 4 5 5 5 6 6 6 7 6 7 7 9 11 12 12 12 13 13 13 13 13 13 13 13 13 13 13 14
18 16 17 17 16 14 13 13 13 12 10 10 11 10 9 10 12 12 12 13 10 11 14 15 14 14 14 9 6 7 8 10 10 8 8 8 7 7 6 5 5 5 5 5 6 6 7 6 6 6 6 6 6 5 5 4 4 4 4 4 4 5 5 5 5 5 5 6 7 8 10 11 11 11 12 12 13 13 13 12 12 12 12 12 12
18 16 17 17 15 15 15 14 12 12 10 11 11 11 11 11 12 12 13 12 10 12 15 14 14 15 13 8 6 7 8 10 9 8 9 8 6 7 6 5 4 3 3 4 5 5 6 6 6 6 6 6 6 5 5 4 4 4 5 5 4 4 4 4 4 5 5 6 6 7 7 8 10 10 11 11 12 12 12 12 12 11 11 11 11
19 18 18 17 17 16 15 14 13 13 11 11 11 12 12 11 11 13 13 13 10 12 14 14 14 14 11 9 8 8 8 9 7 6 7 7 6 7 6 5 4 3 3 4 4 4 5 6 5 6 6 7 6 6 6 5 4 4 5 5 5 4 3 3 3 3 3 4 5 5 5 6 7 8 10 10 11 11 11 11 11 11 11 11 11
20 18 17 17 17 14 13 13 13 13 12 12 12 12 12 11 11 12 13 12 10 10 12 14 14 13 10 8 8 8 8 7 6 5 6 7 7 7 6 5 5 4 4 5 5 4 5 4 5 6 7 7 7 6 6 6 5 5 4 4 4 4 3 2 2 2 2 2 2 2 3 4 5 6 7 8 9 9 9 9 9 9 9 9 9
19 17 17 16 15 13 12 13 13 13 12 12 14 13 12 11 11 11 12 12 10 9 11 14 13 11 10 9 8 7 7 6 5 6 8 8 7 8 8 7 7 6 5 5 5 5 4 4 5 7 8 7 7 7 6 6 6 5 5 4 4 5 4 4 3 2 1 1 1 1 1 2 4 5 5 6 6 6 6 6 6 7 7 7 7
18 17 17 15 14 14 13 12 12 12 12 12 13 12 11 12 11 10 12 13 11 10 11 13 12 11 11 10 8 8 8 7 7 9 10 9 9 9 9 9 8 7 6 5 4 5 5 4 5 6 7 7 8 8 8 8 7 7 7 7 7 8 7 6 5 4 3 2 2 2 2 2 3 4 4 4 4 4 5 6 6 6 6 5 5
17 17 16 14 14 14 13 11 10 10 11 12 11 10 10 12 11 10 11 12 13 13 12 12 13 14 13 10 9 10 9 9 9 9 10 10 10 10 9 8 8 6 5 5 5 5 5 4 5 6 7 7 8 9 9 10 9 9 10 10 11 11 11 10 9 8 7 6 6 6 5 5 4 4 4 3 3 3 4 5 5 6 6 6 6
17 16 15 15 14 14 13 10 9 10 11 11 10 10 11 12 11 11 12 12 13 14 13 12 14 15 14 12 12 11 10 10 9 9 9 9 9 9 9 8 8 8 7 7 6 6 5 4 5 6 7 7 8 9 9 11 11 10 12 13 13 13 13 13 13 13 13 11 10 10 9 9 8 8 7 7 7 6 7 7 8 8 8 8 9
16 17 16 15 14 14 13 11 10 11 11 10 10 10 11 12 11 12 14 14 13 14 14 13 14 14 14 14 13 13 12 10 10 9 9 8 7 8 10 10 10 10 9 9 8 5 4 5 5 6 7 8 8 8 8 10 11 11 12 12 12 12 12 12 13 14 15 15 14 13 13 13 12 12 12 12 12 11 11 11 12 12 11 10 10
16 16 15 13 13 12 12 12 11 11 12 10 9 10 10 11 12 13 15 15 13 14 14 13 13 14 14 13 12 13 11 10 11 11 10 9 8 8 9 10 11 12 11 10 7 4 5 7 6 6 7 7 7 7 7 9 10 10 10 10 10 11 10 11 12 13 13 14 15 14 14 14 14 13 13 13 12 12 11 11 12 12 12 11 11
15 14 13 12 11 11 12 12 12 13 13 9 8 8 8 10 13 14 14 14 13 14 14 13 13 15 14 13 12 10 11 14 14 12 11 9 8 10 11 10 12 13 9 9 9 5 5 8 7 7 7 6 5 6 7 7 8 8 9 9 9 9 9 10 11 11 11 12 13 13 13 13 12 12 12 12 12 11 11 12 12 12 12 12 12
13 12 11 10 10 10 11 12 13 14 12 9 8 8 8 9 12 13 13 12 13 15 15 15 16 16 15 14 11 10 14 18 16 13 11 9 9 11 13 13 12 11 8 8 7 5 6 7 7 7 6 5 4 4 4 5 5 7 8 8 8 8 8 9 11 11 12 13 13 13 13 13 13 13 12 12 12 12 12 12 12 12 12 13 13
12 10 9 9 10 10 12 13 13 12 10 10 9 7 8 9 11 12 12 12 14 16 16 17 19 17 15 13 11 12 17 17 15 17 16 12 11 12 12 12 11 11 10 10 8 7 7 6 6 5 3 4 5 4 3 4 5 7 8 8 8 9 9 10 11 12 12 13 13 13 13 13 13 13 12 12 12 12 12 12 12 12 13 13 13
11 10 10 10 9 10 10 11 11 9 9 10 9 8 9 8 10 11 11 12 14 16 16 18 20 18 15 12 10 14 18 16 15 18 19 18 15 13 13 13 13 15 12 9 9 9 9 8 7 5 2 2 4 5 4 4 5 6 8 9 10 10 10 10 11 11 12 12 12 12 12 12 12 13 13 13 13 13 13 13 12 12 12 12 12
10 10 9 8 7 7 8 8 9 9 8 9 9 9 9 8 9 11 11 11 13 14 16 18 19 18 17 14 11 15 18 16 14 15 17 19 16 14 15 14 16 17 12 9 11 11 9 9 9 6 3 1 2 5 6 5 6 7 9 10 10 10 10 10 10 10 11 12 13 13 13 13 13 13 13 13 13 13 12 12 12 11 11 11 10
9 8 7 6 5 5 6 7 8 9 7 9 9 8 9 9 9 10 10 11 12 13 14 17 19 18 18 16 13 15 18 17 15 15 16 17 16 13 13 14 16 15 11 9 11 12 11 11 9 6 6 4 2 5 6 6 7 8 9 9 9 9 10 10 11 11 12 13 13 14 14 14 13 13 13 13 13 13 12 12 11 11 10 10 9
7 7 6 6 5 5 6 6 7 7 7 9 9 8 8 8 8 10 9 9 11 12 13 16 17 18 19 16 13 14 18 18 16 15 15 15 17 14 10 11 13 13 11 10 10 11 12 11 8 7 8 6 2 5 7 7 8 7 8 9 9 10 10 11 12 12 12 13 13 14 14 13 13 13 13 13 13 13 12 12 11 11 10 9 9
7 7 7 7 6 5 6 6 6 6 7 9 9 8 8 7 7 8 8 10 11 11 12 15 17 18 19 16 13 13 16 17 14 13 13 14 16 15 12 11 10 10 12 12 10 10 11 10 9 9 9 7 3 6 8 8 8 8 9 10 10 10 11 11 12 12 13 13 13 13 13 13 12 12 12 12 12 12 11 11 10 9 9 9 9
9 8 7 7 6 5 5 6 6 6 7 8 7 8 8 6 6 8 9 11 11 10 12 15 16 19 18 16 14 13 15 16 13 13 14 15 16 15 14 13 11 11 13 13 11 10 9 9 9 10 10 7 6 8 8 8 8 9 9 10 10 10 11 11 12 12 12 12 12 12 12 11 11 11 10 10 10 10 10 10 10 9 9 9 9
9 8 7 7 6 5 4 4 5 5 6 7 7 8 8 7 6 8 10 10 9 10 13 14 16 17 17 17 15 12 14 15 13 14 15 16 18 17 15 15 13 11 12 13 12 11 11 10 10 10 9 6 9 9 8 8 8 9 9 9 10 10 11 11 11 11 11 11 11 10 10 10 9 9 9 9 10 10 10 11 11 11 10 10 10
10 9 9 8 7 6 6 5 5 5 5 5 7 7 7 8 8 8 10 10 9 10 12 13 15 15 14 16 16 13 13 14 13 14 15 16 19 17 15 16 15 12 13 14 13 12 12 12 11 10 9 6 9 9 8 8 8 9 8 8 9 10 10 10 10 10 10 9 9 9 8 8 8 8 8 8 9 9 10 11 11 12 12 12 11
10 10 10 9 7 5 4 4 5 5 4 4 5 6 7 9 9 7 9 9 9 12 14 14 14 14 13 13 15 15 13 14 15 14 15 18 20 17 14 15 16 16 16 15 15 14 13 14 13 11 11 8 7 9 9 9 8 8 8 8 8 9 9 9 9 8 8 7 7 7 7 7 7 7 7 7 8 8 9 10 11 11 12 12 13
9 8 9 9 8 7 5 5 5 5 4 4 4 4 5 7 7 7 9 8 9 11 13 12 13 14 14 12 13 15 14 14 14 14 16 19 20 20 17 15 16 17 17 15 15 16 15 15 14 13 12 10 7 10 10 9 8 7 7 8 7 8 8 8 8 7 6 6 5 5 5 5 6 6 7 7 7 8 9 10 10 11 12 13 13
8 8 8 8 9 10 9 8 7 5 5 5 4 3 4 5 5 7 10 9 9 10 10 11 13 13 14 13 14 15 15 15 15 16 19 19 19 21 19 15 14 15 16 16 16 15 15 15 14 13 12 10 8 10 10 9 8 6 7 7 7 7 6 6 6 6 5 4 3 2 3 3 4 5 6 6 7 8 9 10 11 12 13 13 14
6 6 7 7 9 11 11 9 7 6 5 4 4 4 4 5 4 5 8 8 10 12 10 9 11 12 13 14 14 15 16 17 17 18 19 18 19 20 18 15 13 12 14 16 17 14 13 14 14 13 12 10 9 11 11 9 7 6 7 7 7 6 6 6 6 6 4 3 2 1 1 1 2 3 4 5 7 8 9 10 11 12 13 14 15
5 6 7 7 7 8 7 6 5 5 5 4 4 3 3 5 4 4 6 7 10 12 10 9 9 10 12 13 13 14 16 19 19 19 19 17 18 18 16 13 12 11 12 14 17 15 12 13 15 13 11 10 9 10 11 10 7 6 5 5 7 8 8 7 7 7 6 5 3 2 2 2 2 3 4 5 6 8 9 10 11 12 13 14 15
6 8 8 6 6 6 5 5 4 3 4 4 5 4 3 5 5 5 6 6 8 9 9 8 8 10 11 12 13 13 16 20 19 17 18 17 18 17 14 12 11 11 12 13 17 17 13 11 12 12 12 12 10 9 9 9 8 6 6 5 6 7 7 8 9 9 9 8 6 5 5 4 5 5 5 6 7 8 9 10 11 11 12 13 14
7 8 8 7 8 6 6 6 5 5 5 4 5 6 5 4 6 6 6 7 8 8 9 9 8 9 11 13 15 14 16 20 17 15 16 16 19 16 11 11 13 12 12 14 16 18 17 15 12 13 15 12 11 11 10 8 7 7 8 9 8 8 8 8 9 11 11 9 7 6 6 7 7 7 8 8 9 9 10 11 12 12 13 14 14
9 7 6 7 9 7 6 7 6 7 7 4 4 6 5 5 6 6 6 8 8 8 9 9 7 10 12 14 15 15 17 18 16 14 14 16 19 15 11 10 11 12 14 14 16 19 19 19 16 15 16 12 12 14 12 10 9 8 9 11 11 10 9 8 7 8 10 9 6 8 8 9 9 10 10 11 11 11 12 12 13 13 14 15 15
10 8 6 7 9 8 7 6 5 6 6 5 7 7 6 6 6 6 7 7 6 7 10 9 7 8 12 14 15 16 18 18 17 15 13 17 19 13 11 11 8 11 15 11 14 18 18 19 19 17 16 13 13 15 15 14 13 11 10 10 11 11 11 11 9 7 7 7 8 11 13 13 13 14 14 14 14 14 14 14 15 15 15 15 16
10 8 7 8 8 7 8 6 4 5 6 8 9 8 8 7 6 6 7 7 8 8 9 10 7 6 8 12 14 15 16 17 19 16 12 15 15 8 10 12 7 10 12 9 14 17 14 15 17 16 17 15 13 15 16 17 16 14 11 9 8 10 12 14 14 13 11 11 13 15 17 18 18 17 16 17 17 17 17 16 17 17 17 17 17
9 8 8 8 6 6 7 7 6 7 7 8 8 8 10 10 8 7 6 7 8 8 7 9 9 7 5 6 9 11 13 15 19 19 13 11 10 8 11 13 9 10 10 8 12 14 12 14 13 12 16 17 13 14 15 16 18 16 13 11 11 11 12 15 17 18 17 16 17 19 20 20 20 18 18 19 19 19 18 18 18 19 18 18 18
10 10 9 9 7 6 7 7 7 8 8 8 8 8 10 11 11 10 8 6 7 7 7 6 6 5 4 4 4 5 9 14 19 19 15 12 11 9 11 14 12 13 14 12 11 10 9 11 11 10 13 14 13 13 12 12 16 18 16 15 15 14 13 16 20 20 19 20 21 21 21 22 23 21 20 20 21 21 20 19 20 20 20 19 19
11 10 10 10 10 9 9 8 8 10 8 7 8 8 9 10 11 11 11 9 7 9 9 7 6 7 6 5 4 3 7 12 17 19 17 14 12 9 12 14 10 10 15 14 13 12 9 7 10 11 9 10 13 15 12 10 13 16 17 17 18 16 13 16 20 21 21 22 23 23 23 24 24 23 21 21 22 21 20 20 21 21 21 21 21
12 11 11 11 10 10 12 10 8 10 10 7 8 9 8 8 8 8 10 9 8 8 7 5 8 8 6 5 5 4 5 7 12 17 17 15 13 10 12 14 10 9 12 11 9 12 10 8 10 11 10 10 11 14 16 15 14 15 15 15 16 17 16 16 18 20 21 22 23 24 24 25 24 24 23 24 23 21 21 23 24 23 22 21 21
13 12 12 12 10 10 12 11 9 10 11 8 7 9 9 8 6 6 6 7 7 8 6 4 6 5 4 5 5 5 5 5 7 11 14 15 15 12 12 13 12 10 10 9 7 9 9 9 10 11 12 13 13 14 16 16 16 17 16 15 16 17 17 16 17 18 19 21 23 25 25 24 24 24 26 27 25 25 27 28 27 25 22 21 21
14 13 13 13 11 11 11 10 10 10 10 10 9 8 9 9 7 8 7 5 6 7 4 3 5 4 4 4 5 5 6 7 8 8 11 13 15 15 13 13 14 13 11 11 10 10 10 11 11 10 12 13 13 14 15 15 17 18 19 20 21 20 19 19 21 21 19 18 20 23 23 23 24 27 30 31 30 30 31 30 28 26 24 23 22
16 14 14 14 13 13 11 8 8 9 9 11 11 10 10 9 9 10 9 6 6 7 5 4 5 5 6 6 5 4 6 9 10 9 10 12 14 15 14 12 14 14 14 13 13 13 13 13 13 13 13 13 12 12 13 14 17 18 19 20 21 22 22 22 23 24 23 20 20 23 24 25 26 29 32 34 34 33 31 29 28 28 27 25 24
19 16 15 14 12 13 12 7 5 6 8 10 11 12 12 11 11 10 7 6 6 7 7 6 5 7 9 7 6 5 6 8 9 9 8 9 12 14 15 14 13 14 15 15 15 15 14 14 15 16 16 16 15 15 14 14 16 18 20 20 20 20 21 21 23 24 24 24 24 26 27 28 29 32 34 35 35 35 32 28 27 27 27 27 27
21 17 13 11 10 11 11 7 4 4 6 7 8 10 11 12 12 11 8 7 8 8 9 8 6 8 11 10 8 8 7 6 8 9 8 7 8 10 13 13 13 13 15 16 16 17 18 17 17 18 18 18 20 20 20 20 19 20 22 23 24 25 25 26 26 26 25 25 25 26 27 28 29 33 34 33 33 33 31 28 26 26 27 28 27
17 13 9 8 9 9 8 7 5 6 6 5 6 7 8 9 11 12 10 10 9 7 8 8 6 6 9 8 7 8 7 5 6 8 9 8 7 8 9 10 10 10 10 12 13 15 17 19 20 20 20 21 22 23 23 24 25 25 25 25 26 27 29 30 30 30 30 29 29 29 30 31 30 31 31 30 30 32 30 27 27 27 26 26 26
14 11 10 9 9 8 8 7 7 7 6 6 6 6 7 8 10 11 8 6 7 6 6 6 5 5 7 8 7 7 7 6 5 6 8 8 9 9 10 10 10 10 10 11 12 13 15 17 19 20 22 23 23 24 25 25 26 27 27 27 28 28 29 31 32 32 32 32 31 32 34 34 32 31 31 28 27 29 30 29 28 27 25 25 26
13 12 12 12 11 10 10 9 9 8 8 8 7 7 8 8 9 9 6 3 3 3 2 3 4 4 5 6 6 6 7 7 7 8 9 9 10 11 12 12 13 13 14 15 16 17 19 20 21 22 23 24 25 26 26 27 27 28 28 29 30 30 31 32 33 35 35 35 34 33 34 35 33 31 31 30 27 28 30 30 29 27 26 26 27
12 11 11 12 12 11 10 10 10 9 9 10 9 9 10 9 9 10 10 7 5 5 6 3 2 3 4 5 7 7 9 9 10 11 11 12 13 14 15 16 17 17 18 19 20 22 22 23 25 26 26 27 28 29 29 29 30 31 32 34 34 32 33 33 34 36 38 39 37 34 33 35 33 30 31 32 30 29 30 31 30 29 28 28 28
11 10 11 11 11 11 10 10 10 9 9 10 10 10 11 11 11 11 11 11 10 11 10 6 2 1 4 6 8 9 12 13 13 13 13 14 15 16 17 18 18 19 21 21 22 23 24 25 26 27 28 29 29 30 30 30 30 30 31 33 34 35 36 37 38 39 40 41 40 36 35 36 35 32 31 32 30 28 29 32 32 31 30 29 30
Wind_Direction
196 195 199 198 191 186 175 183 206 216 168 161 208 208 167 181 174 182 213 212 216 220 222 223 199 192 189 181 178 175 174 165 170 201 146 105 101 87 67 53 39 39 82 102 107 108 104 103 102 98 93 89 84 79 77 75 74 72 69 66 64 62 61 62 61 61 61 61 61 60 60 61 60 60 59 57 56 56 57 57 57 56 56 54 54
196 193 192 193 191 188 185 182 185 207 198 167 191 216 179 178 182 195 206 210 230 231 219 215 193 184 190 197 189 172 173 166 167 200 165 112 110 89 70 48 44 73 96 102 104 103 101 101 98 96 92 87 81 75 72 71 71 72 71 69 67 66 65 65 65 65 66 65 64 63 63 64 63 62 61 60 60 60 61 60 61 61 60 58 57
192 191 188 193 195 194 194 193 196 204 200 169 183 211 190 178 188 194 192 210 232 232 214 204 191 181 189 205 198 166 162 167 168 177 137 121 109 83 72 73 87 100 104 106 106 103 98 94 89 87 85 78 72 70 68 66 68 68 68 68 67 66 66 66 66 67 67 66 65 63 63 64 63 63 62 62 62 63 63 63 64 65 65 64 62
194 194 192 197 200 203 203 204 211 208 198 185 192 200 187 185 193 188 198 218 226 228 210 195 191 185 193 202 193 171 159 162 162 161 144 131 116 89 78 92 105 107 108 109 108 105 97 88 81 78 73 66 61 63 63 58 60 61 60 59 62 65 65 65 66 68 68 68 66 64 63 63 64 65 64 65 65 66 67 67 68 69 69 68 66
195 195 193 197 201 206 205 207 213 210 202 192 192 193 186 192 188 184 208 220 216 225 213 193 188 185 190 188 170 165 160 153 154 159 150 139 138 116 98 102 109 111 110 105 100 98 93 87 85 80 73 70 66 63 59 50 49 48 48 47 49 55 59 63 63 64 67 67 67 65 64 63 64 66 67 68 69 70 71 71 71 71 71 70 69
195 198 196 197 203 207 203 209 213 209 203 192 189 188 184 190 184 184 207 216 209 218 213 196 187 185 190 185 155 153 155 150 149 157 154 151 155 138 121 114 110 110 107 102 97 93 93 91 90 88 80 74 71 66 61 53 47 35 28 32 32 35 45 55 55 55 56 57 61 63 65 65 64 67 70 72 74 74 74 73 71 71 71 70 69
198 203 200 199 202 203 202 209 209 202 200 196 191 184 181 188 190 196 208 214 210 199 198 193 188 188 189 184 158 148 149 150 151 158 159 155 152 143 135 124 111 107 105 105 105 100 95 92 88 84 76 66 61 61 61 53 43 30 23 23 18 19 26 33 37 39 37 40 50 55 62 68 69 70 74 76 76 76 74 73 70 68 67 66 65
196 199 198 195 196 199 202 208 206 202 202 197 187 182 192 197 193 201 211 211 203 193 189 183 184 187 179 167 165 158 142 146 157 163 164 164 159 149 142 136 129 113 109 112 113 110 100 96 90 75 62 54 49 51 59 57 46 34 31 30 22 20 20 19 20 21 23 30 38 44 52 68 78 76 76 77 76 74 72 72 71 68 65 62 60
192 197 198 192 195 203 204 205 205 203 203 197 188 189 201 205 192 198 213 214 206 199 186 173 176 177 164 150 163 170 144 143 161 166 166 172 172 168 161 160 165 141 120 121 116 114 107 96 76 61 55 51 48 48 52 55 57 49 39 38 35 31 21 14 16 12 13 23 31 39 39 53 80 83 77 74 71 70 69 68 68 66 64 63 59
195 198 203 200 197 202 203 203 204 200 200 196 194 202 209 209 201 201 213 216 206 192 177 175 181 177 169 160 168 176 156 150 169 168 164 167 170 174 172 170 168 145 116 116 114 108 107 88 61 61 61 56 50 48 49 54 63 65 52 47 48 47 42 41 34 19 16 19 27 50 39 37 69 84 77 66 58 57 63 63 63 63 61 59 58
198 196 205 208 198 199 202 201 204 201 199 196 198 211 222 220 211 205 211 212 201 190 181 181 184 181 180 177 176 180 174 178 187 171 163 160 161 166 164 158 153 142 124 120 118 110 102 78 71 71 64 61 57 53 55 63 69 70 63 59 60 61 64 68 57 35 39 30 31 75 66 42 62 74 67 49 36 35 44 43 45 54 53 51 52
196 198 205 207 199 202 205 202 205 203 199 200 204 216 227 227 218 206 207 209 205 203 190 181 183 183 181 182 183 181 183 189 181 166 157 150 150 153 152 148 147 148 136 123 117 118 110 88 83 71 58 62 66 64 66 69 69 68 71 73 72 73 73 71 66 64 76 93 106 102 88 74 68 70 65 50 32 19 25 24 18 26 30 34 42
192 198 203 204 204 207 209 210 212 208 201 202 210 220 226 228 220 203 198 206 209 203 189 182 186 183 176 175 175 169 169 170 163 159 154 148 147 144 145 151 150 139 125 122 116 113 107 90 80 67 65 74 74 72 73 73 72 73 79 81 79 80 78 73 70 75 84 93 105 106 96 92 88 82 72 64 52 19 20 21 16 16 15 21 38
194 197 202 206 210 211 213 220 221 215 208 205 209 212 218 221 215 197 191 201 208 202 195 192 187 181 173 165 158 154 155 155 154 155 148 140 140 140 146 147 132 119 114 112 104 100 97 87 86 80 79 83 78 76 78 79 80 82 87 87 85 82 79 78 76 78 84 87 93 100 97 92 90 87 81 79 80 70 63 59 55 55 50 49 54
197 201 205 209 214 213 217 226 224 220 215 213 209 207 215 216 203 194 191 198 203 197 195 192 183 176 168 159 153 149 148 153 157 153 142 137 143 147 148 140 125 116 103 86 80 97 120 114 107 99 90 85 81 81 85 86 85 88 93 93 91 89 87 86 84 83 86 88 91 96 97 95 93 92 90 89 88 83 78 73 69 68 67 65 62
196 203 209 214 219 221 226 228 225 223 220 220 216 211 217 210 197 191 192 197 197 188 186 186 183 174 161 154 156 153 152 159 156 148 145 148 147 138 141 144 129 113 105 109 124 151 147 133 125 115 104 98 95 93 93 93 94 95 94 92 92 94 92 87 86 88 89 91 92 94 96 97 97 95 93 90 86 82 77 72 69 67 65 64 61
201 210 215 219 225 226 227 228 227 225 224 226 219 205 200 196 195 193 192 198 196 185 180 181 181 175 164 156 157 163 164 158 148 144 147 146 141 134 133 133 120 112 124 153 163 169 150 139 137 126 114 113 114 108 103 99 103 107 100 94 90 89 88 85 87 90 91 93 92 93 95 96 95 93 90 87 83 80 75 71 69 66 65 64 62
210 220 222 226 232 229 226 227 227 225 224 224 218 206 190 184 192 192 187 190 194 187 177 177 178 175 172 167 165 173 167 156 148 146 140 134 139 135 125 119 119 124 134 143 139 132 138 141 139 133 127 133 131 111 105 104 111 118 110 103 96 90 89 91 93 91 91 92 91 92 93 93 93 91 88 86 83 79 75 71 68 66 65 64 64
215 223 222 224 230 227 223 223 222 222 224 223 220 215 196 178 184 190 181 178 186 186 177 174 177 176 174 173 172 172 167 162 160 153 142 138 141 133 126 131 141 146 140 142 142 126 119 117 118 121 124 145 144 133 125 127 133 126 113 106 101 98 96 95 95 93 92 91 92 92 92 91 90 89 87 84 81 79 75 72 69 68 67 66 66
216 221 214 215 222 221 217 216 215 217 221 221 217 211 203 184 183 190 184 179 181 185 184 178 177 179 178 174 169 167 167 168 166 160 150 145 141 138 147 152 147 144 147 164 155 119 94 86 94 99 90 134 143 141 140 138 139 126 112 107 104 100 97 93 92 92 92 93 93 93 91 90 88 86 86 83 81 79 75 73 70 68 67 66 66
207 213 209 206 211 214 211 208 207 213 217 213 208 206 203 193 188 188 183 181 181 186 193 187 180 183 182 181 179 172 170 169 167 167 161 151 145 150 162 162 150 147 156 163 136 116 107 116 126 128 135 195 163 138 145 147 140 128 115 109 104 100 96 93 92 91 94 94 94 94 92 90 88 85 84 81 78 76 72 69 66 64 63 62 61
191 203 208 200 198 203 203 200 202 211 211 199 196 201 205 200 188 181 175 177 185 188 192 192 189 188 186 187 189 182 175 171 170 172 168 158 153 159 168 170 167 164 165 154 138 138 141 146 154 150 155 196 202 141 150 149 140 132 120 111 103 101 97 95 96 95 95 96 94 93 91 89 87 83 81 77 73 70 66 63 60 58 58 56 55
186 200 205 196 195 196 192 192 198 208 204 193 192 198 211 209 186 178 177 179 190 191 187 193 195 190 189 189 188 187 183 178 175 177 177 167 157 158 164 173 178 173 160 145 140 141 138 142 152 150 166 206 214 139 149 149 142 133 120 112 105 103 101 98 98 96 96 96 94 92 89 87 84 80 76 71 66 63 59 56 54 53 51 49 47
192 197 199 194 195 192 188 191 195 203 199 193 194 196 207 213 191 184 192 192 196 199 190 190 193 190 189 190 190 192 191 188 184 184 186 171 158 159 162 163 164 160 151 141 138 140 140 148 155 163 192 223 204 153 159 155 146 134 122 116 111 105 104 103 102 100 97 93 91 88 86 82 79 76 72 68 65 62 59 57 53 52 50 47 44
192 191 191 191 190 182 185 193 193 198 201 197 196 197 201 203 189 181 186 191 195 196 188 184 189 191 189 190 194 195 193 191 187 187 185 170 160 164 166 159 152 152 149 143 148 153 152 158 161 179 214 227 183 170 168 160 151 137 128 121 116 110 109 108 105 102 98 93 90 85 84 82 79 78 76 74 73 70 68 65 60 56 53 49 46
192 189 189 191 191 182 180 190 191 194 198 196 192 192 194 190 180 175 175 182 192 193 187 183 185 187 187 192 196 195 191 190 189 187 184 175 167 165 165 159 153 157 151 148 159 160 155 163 166 185 223 214 174 174 170 165 157 141 134 128 122 118 116 114 109 105 100 96 94 90 89 88 86 86 84 82 80 76 71 66 61 57 52 48 44
193 190 191 197 199 193 184 184 186 187 192 198 194 187 190 186 179 178 175 176 189 191 178 174 179 182 185 192 195 194 189 188 190 186 185 184 172 163 165 159 154 163 159 157 168 164 159 163 166 189 220 199 171 177 174 168 159 145 139 134 128 126 125 121 116 112 107 103 101 98 95 93 89 87 84 82 77 72 68 62 58 53 48 45 40
194 191 190 198 204 191 182 188 176 174 186 197 192 176 182 185 176 181 187 177 177 183 174 169 182 191 188 188 194 196 192 187 189 186 183 183 172 163 168 164 162 167 166 167 170 164 160 161 166 191 220 219 184 181 181 172 165 154 145 140 136 135 134 132 128 123 119 115 109 105 99 93 89 83 78 75 70 65 61 56 53 48 44 41 36
191 185 185 195 196 164 158 202 191 174 177 177 178 159 166 180 171 175 187 175 162 176 183 177 182 196 196 192 194 196 194 191 193 191 183 180 175 169 168 170 172 168 168 173 169 163 164 167 172 190 221 235 195 179 188 180 171 161 150 148 145 143 144 142 141 137 133 130 118 110 102 91 84 77 71 65 59 56 52 47 43 39 36 33 29
183 181 180 189 191 167 168 203 202 178 165 158 162 144 139 159 167 166 167 167 162 168 183 180 178 188 192 194 194 191 193 191 192 193 185 181 181 175 168 174 183 173 172 172 160 159 168 175 187 199 216 229 198 184 193 186 180 178 166 159 153 157 162 158 158 156 150 146 132 112 97 85 76 68 60 53 47 41 38 36 33 29 25 22 20
180 181 169 172 184 177 182 200 197 176 164 155 157 154 144 145 156 158 149 154 163 162 166 172 176 181 184 190 192 189 192 189 185 188 186 184 187 178 168 177 188 183 181 172 159 164 176 181 193 204 218 224 203 195 196 189 194 199 186 173 167 179 186 181 185 186 183 189 183 196 5 38 44 43 37 31 28 25 24 22 21 20 16 13 11
172 161 156 164 169 172 181 178 168 164 157 152 152 155 153 140 143 158 150 153 162 162 164 167 171 175 178 186 188 188 193 189 183 185 183 179 180 176 175 189 197 196 195 178 162 164 176 188 192 197 217 224 209 205 198 187 198 221 214 186 181 197 205 203 210 212 216 229 237 264 296 319 331 349 3 5 7 6 8 8 8 9 7 6 4
164 149 151 159 151 149 150 134 132 143 144 152 151 144 145 139 140 155 157 158 160 161 164 163 163 169 176 184 186 189 191 187 184 186 185 179 176 179 189 200 201 193 184 171 162 162 169 187 192 195 212 218 208 211 203 186 198 225 235 217 197 212 224 219 224 228 230 235 242 263 283 293 308 324 332 340 346 347 349 350 351 353 354 355 355
145 142 156 159 145 139 139 140 144 139 136 162 162 148 151 145 138 149 155 148 152 160 159 153 157 167 175 184 186 186 186 185 185 186 189 183 176 178 184 195 206 197 179 175 175 175 176 180 184 196 210 211 201 207 208 198 206 217 228 237 231 233 243 239 241 240 233 232 243 264 281 285 293 305 313 322 328 330 334 335 336 339 340 342 344
143 158 176 150 134 137 143 149 154 146 146 170 155 135 138 137 130 144 149 137 144 157 149 145 159 170 174 180 181 181 183 186 184 179 183 181 176 178 177 192 220 206 185 190 193 189 186 183 182 194 208 207 199 210 220 222 230 229 227 242 249 251 254 257 266 245 222 225 257 279 289 292 295 302 304 309 313 316 319 321 324 328 329 332 334
153 169 167 132 134 147 143 139 143 142 142 126 109 108 114 115 114 125 131 138 151 151 147 158 167 164 171 177 177 178 181 182 175 173 186 184 179 186 185 188 218 198 186 202 204 194 190 185 184 193 212 217 203 208 225 233 239 242 240 248 254 256 263 274 292 282 246 255 281 286 291 295 298 301 301 301 303 305 308 311 315 318 320 323 326
163 161 146 136 147 151 137 125 96 91 109 110 111 120 118 109 114 124 126 134 136 125 138 160 147 116 154 179 180 180 181 177 170 174 196 188 178 190 188 182 200 197 194 207 199 193 195 193 189 193 212 223 205 196 215 231 237 242 251 260 254 250 257 263 272 278 276 277 276 276 284 292 297 298 296 296 297 297 301 305 308 310 312 315 318
164 146 138 139 148 144 125 114 94 94 112 121 125 134 128 119 118 127 130 122 115 108 120 150 143 106 105 165 181 183 184 180 172 175 193 195 193 212 195 184 193 201 206 205 184 184 197 202 193 189 205 218 211 196 204 223 235 242 250 253 243 239 246 248 252 258 264 268 269 272 279 285 290 291 290 291 292 293 296 299 301 303 304 308 311
156 141 146 145 143 135 121 128 145 148 145 143 143 138 134 136 132 132 137 121 123 139 132 139 163 150 118 140 173 175 177 179 175 176 186 197 210 215 189 186 202 209 212 218 203 194 201 202 196 195 204 209 210 211 208 216 233 243 249 245 235 235 243 245 245 247 254 262 265 267 272 279 285 287 287 287 286 286 290 292 294 297 300 304 307
147 144 152 145 138 138 146 164 175 171 167 160 154 144 139 148 148 144 140 126 131 151 136 111 125 134 139 165 184 169 167 175 179 182 186 196 212 210 182 181 194 200 204 215 221 220 225 227 217 215 217 210 210 220 223 219 227 237 244 244 240 242 246 245 244 248 258 266 266 264 267 275 282 285 288 288 284 281 286 291 294 296 298 301 303
146 151 151 141 136 151 172 185 183 179 182 172 154 154 153 152 150 151 149 137 132 144 147 133 121 124 148 176 176 178 177 177 183 187 191 201 214 211 190 187 184 179 189 200 213 218 225 246 246 240 246 248 238 236 238 240 243 245 246 246 246 248 248 249 253 259 265 266 264 266 271 275 279 281 283 285 281 278 286 295 297 297 296 298 299
149 150 144 138 143 168 185 190 190 192 196 190 170 164 164 154 139 135 147 152 145 141 151 156 131 134 182 196 190 198 202 199 199 198 202 208 215 212 204 203 202 197 197 199 206 218 224 240 249 248 251 254 249 246 246 250 257 260 259 257 257 254 251 252 256 264 274 274 267 268 274 276 277 277 278 278 276 276 285 293 296 296 295 296 298
147 141 141 145 158 183 196 196 199 204 205 205 198 182 172 165 148 129 124 136 148 140 136 149 147 159 201 208 205 212 216 215 212 211 213 214 216 216 215 215 216 220 219 216 217 222 225 235 242 243 245 249 250 251 252 255 260 265 265 266 268 269 266 263 259 260 271 279 273 270 272 274 274 276 278 278 275 277 285 291 293 294 294 295 296
142 142 155 161 170 189 197 197 206 213 214 212 209 202 192 179 163 146 127 123 146 147 143 161 167 176 201 211 209 216 228 223 214 211 214 216 217 218 218 217 219 225 228 228 229 229 230 238 243 240 238 242 249 255 257 259 260 260 262 265 268 272 272 271 268 267 267 268 268 270 274 276 274 275 277 279 279 280 284 287 289 292 295 294 294
148 158 172 176 183 194 199 204 214 210 208 207 205 207 206 196 185 173 139 120 150 160 162 177 170 156 165 170 161 163 190 208 206 200 201 210 216 217 220 224 225 227 229 231 235 236 237 242 245 246 246 245 247 251 253 255 255 255 257 258 260 264 265 263 265 268 269 269 268 270 272 274 275 276 276 278 280 282 281 279 282 288 291 290 289
163 171 181 188 190 192 198 206 198 176 179 188 190 196 202 200 197 193 172 149 154 160 169 188 195 167 156 150 151 169 186 205 204 196 191 201 214 221 228 233 238 243 244 244 246 246 245 247 249 252 253 252 252 254 255 257 257 258 261 261 259 260 260 259 258 259 261 263 265 266 266 269 275 278 278 279 280 277 274 273 275 280 283 284 284
172 177 186 191 184 180 185 186 175 165 163 168 169 172 180 182 185 188 181 164 161 168 175 185 199 187 172 167 174 183 192 205 201 199 202 206 215 231 241 242 244 251 256 257 260 260 259 261 262 262 261 261 261 260 260 260 260 261 262 263 263 262 262 262 262 261 261 261 260 262 264 267 271 272 272 276 277 271 268 269 272 275 278 280 281
181 185 188 185 178 175 177 181 182 178 174 174 169 162 159 158 169 177 172 161 173 188 183 175 183 195 199 207 211 203 209 226 224 219 224 228 237 249 257 258 257 259 261 262 262 263 265 268 271 272 273 274 273 271 269 267 266 266 266 265 264 264 265 266 266 266 266 264 264 266 269 273 276 271 267 271 273 270 270 270 268 270 274 275 275
191 195 198 198 195 189 185 190 194 191 188 185 181 177 167 160 167 166 144 134 191 186 120 139 179 200 212 223 230 229 237 247 249 250 253 256 262 268 273 276 276 276 273 269 263 259 258 260 263 267 269 272 276 279 279 276 274 274 273 270 267 267 268 268 268 268 268 269 271 273 271 274 277 272 267 270 271 270 272 270 265 266 270 270 267
195 197 203 205 204 199 195 197 199 199 199 195 190 188 182 176 180 172 148 138 157 139 100 93 211 228 238 249 251 248 249 253 257 259 265 270 274 278 280 281 281 280 277 274 272 269 265 264 265 267 268 269 273 278 279 278 277 277 275 273 270 269 269 268 267 269 271 273 273 271 269 272 274 270 270 273 273 268 266 264 262 264 266 264 260
190 192 199 205 205 201 197 196 197 201 204 203 200 199 194 190 194 192 179 172 175 165 145 127 114 276 270 270 268 261 258 262 265 267 271 275 277 279 280 279 279 278 277 277 277 277 275 274 274 274 274 274 276 277 279 279 277 276 275 274 273 271 270 269 269 268 268 270 270 269 271 274 275 273 270 268 267 261 255 256 260 261 261 258 254